Regional Weather Roundup
Issued by NWS

Home | Current Version | Previous Version | Text Only | Print | Product List | Glossary Off
Versions: 1 2 3 4 5 6 7 8 9 10 11 12 13 14 15 16 17 18 19 20 21 22 23 24 25 26 27 28 29 30 31 32 33 34 35 36 37 38 39 40 41 42 43 44 45 46 47 48 49 50

000
ASUS43 KBIS 292220
RWRND

NORTH DAKOTA REGIONAL WEATHER ROUNDUP
NATIONAL WEATHER SERVICE BISMARCK ND
500 PM CDT SUN MAR 29 2015

NOTE: "FAIR" INDICATES FEW OR NO CLOUDS BELOW 12,000 FEET WITH NO
SIGNIFICANT WEATHER AND/OR OBSTRUCTIONS TO VISIBILITY.


NDZ001>003-009>011-017-292300-
NORTHWEST NORTH DAKOTA

CITY           SKY/WX    TMP DP  RH WIND       PRES   REMARKS
WILLISTON      PTSUNNY   58  29  33 W10G21    29.97F
MINOT          PTSUNNY   58  28  32 W20G28    29.93F
MINOT AFB      SUNNY     56  32  39 NW23G29   29.91F
$$

NDZ018>021-031>035-040>046-292300-
SOUTHWEST NORTH DAKOTA

CITY           SKY/WX    TMP DP  RH WIND       PRES   REMARKS
BISMARCK       MOSUNNY   60  29  30 NW16G28   29.99F
DICKINSON      SUNNY     60  26  27 NW21G26   29.99F
GARRISON         N/A     58  32  37 NW23G31   29.96F
HETTINGER ARPT PTSUNNY   62  27  26 W24G30    30.03F
$$

NDZ004>008-012>016-024-026-027-054-292300-
NORTHEAST NORTH DAKOTA

CITY           SKY/WX    TMP DP  RH WIND       PRES   REMARKS
GRAND FORKS    PTSUNNY   53  25  33 NW22G31   29.88R
GRND FRKS AFB  PTSUNNY   54  25  31 N21G28    29.88S
DEVILS LAKE    CLOUDY    52  30  43 NW21      29.89S
$$

NDZ022-023-025-028>030-036>039-047>053-292300-
SOUTHEAST NORTH DAKOTA

CITY           SKY/WX    TMP DP  RH WIND       PRES   REMARKS
FARGO          MOSUNNY   55  23  28 NW29G38   29.90R
JAMESTOWN      PTSUNNY   55  24  30 NW21G31   29.94S
$$



USA.gov is the U.S. government's official web portal to all federal, state and local government web resources and services.